• In Latvia
  • List of Countries
  • For 7 days
  • Water Temperature
  • Satellite Maps
  • Weather Map
  • Weather Widgets
  • user-avatar
    Login

    Hourly Weather Harare

    Today, 20 November, Monday

    Time Temperature Precipitation Wind Pressure Humidity
    00:00 +17°C° 0 mm 2 mps 640 mmHg 89%
    01:00 +17°C° 0 mm 2 mps 640 mmHg 91%
    02:00 +17°C° 0 mm 2 mps 639 mmHg 93%
    03:00 +16°C° 0 mm 2 mps 639 mmHg 94%
    04:00 +16°C° 0 mm 2 mps 639 mmHg 95%
    05:00 +16°C° 0 mm 1 mps 639 mmHg 95%
    06:00 +17°C° 0 mm 2 mps 640 mmHg 88%
    07:00 +19°C° 0 mm 2 mps 640 mmHg 81%
    08:00 +21°C° 0 mm 2 mps 642 mmHg 72%
    09:00 +24°C° 0.3 mm 2 mps 642 mmHg 63%
    10:00 +26°C° 0.3 mm 2 mps 642 mmHg 55%
    11:00 +28°C° 0.3 mm 1 mps 642 mmHg 46%
    12:00 +28°C° 0.1 mm 1 mps 642 mmHg 44%
    13:00 +29°C° 0.1 mm 1 mps 641 mmHg 41%
    14:00 +29°C° 0.1 mm 1 mps 641 mmHg 38%
    15:00 +29°C° 0 mm 1 mps 640 mmHg 41%
    16:00 +28°C° 0 mm 2 mps 640 mmHg 44%
    17:00 +27°C° 0 mm 2 mps 639 mmHg 47%
    18:00 +25°C° 0.4 mm 2 mps 639 mmHg 54%
    19:00 +24°C° 0.4 mm 2 mps 639 mmHg 60%
    20:00 +21°C° 0.4 mm 2 mps 639 mmHg 66%
    21:00 +20°C° 0 mm 2 mps 639 mmHg 67%
    22:00 +20°C° 0 mm 2 mps 639 mmHg 67%
    23:00 +19°C° 0 mm 2 mps 639 mmHg 68%

    Tomorrow, 21 November, Tuesday

    Time Temperature Precipitation Wind Pressure Humidity
    00:00 +18°C° 0 mm 2 mps 639 mmHg 67%
    01:00 +18°C° 0 mm 2 mps 638 mmHg 67%
    02:00 +18°C° 0 mm 1 mps 638 mmHg 66%
    03:00 +18°C° 0 mm 1 mps 638 mmHg 67%
    04:00 +18°C° 0 mm 1 mps 638 mmHg 67%
    05:00 +16°C° 0 mm 1 mps 638 mmHg 67%
    06:00 +19°C° 0 mm 1 mps 639 mmHg 61%
    07:00 +20°C° 0 mm 2 mps 640 mmHg 55%
    08:00 +24°C° 0 mm 2 mps 640 mmHg 49%
    09:00 +26°C° 0 mm 2 mps 641 mmHg 44%
    10:00 +28°C° 0 mm 1 mps 641 mmHg 39%
    11:00 +30°C° 0 mm 1 mps 641 mmHg 34%
    12:00 +31°C° 0 mm 1 mps 641 mmHg 32%
    13:00 +32°C° 0 mm 1 mps 640 mmHg 30%
    14:00 +32°C° 0 mm 1 mps 640 mmHg 28%
    15:00 +31°C° 0 mm 1 mps 639 mmHg 30%
    16:00 +30°C° 0 mm 1 mps 638 mmHg 33%
    17:00 +29°C° 0 mm 1 mps 638 mmHg 35%
    18:00 +27°C° 0 mm 1 mps 638 mmHg 40%
    19:00 +25°C° 0 mm 1 mps 637 mmHg 44%
    20:00 +24°C° 0 mm 1 mps 637 mmHg 49%
    21:00 +23°C° 0 mm 2 mps 637 mmHg 51%
    22:00 +23°C° 0 mm 2 mps 638 mmHg 53%
    23:00 +21°C° 0 mm 2 mps 638 mmHg 55%

    Day after tomorrow, 22 November, Wednesday

    Time Temperature Precipitation Wind Pressure Humidity
    00:00 +20°C° 0 mm 2 mps 637 mmHg 57%
    01:00 +21°C° 0 mm 1 mps 637 mmHg 59%
    02:00 +20°C° 0 mm 1 mps 636 mmHg 61%
    03:00 +19°C° 0 mm 2 mps 636 mmHg 61%
    04:00 +19°C° 0 mm 2 mps 636 mmHg 62%
    05:00 +18°C° 0 mm 2 mps 637 mmHg 63%
    06:00 +20°C° 0 mm 2 mps 637 mmHg 58%
    07:00 +22°C° 0 mm 3 mps 638 mmHg 53%
    08:00 +25°C° 0 mm 3 mps 639 mmHg 48%
    09:00 +27°C° 0 mm 3 mps 640 mmHg 44%
    10:00 +28°C° 0 mm 2 mps 640 mmHg 40%
    11:00 +30°C° 0 mm 2 mps 640 mmHg 36%
    12:00 +30°C° 0 mm 1 mps 639 mmHg 36%
    13:00 +30°C° 0 mm 1 mps 639 mmHg 35%
    14:00 +28°C° 0 mm 0 mps 638 mmHg 34%
    15:00 +30°C° 0 mm 1 mps 637 mmHg 36%
    16:00 +29°C° 0 mm 1 mps 637 mmHg 38%
    17:00 +29°C° 0 mm 1 mps 637 mmHg 39%
    18:00 +27°C° 0 mm 1 mps 637 mmHg 42%
    19:00 +26°C° 0 mm 1 mps 637 mmHg 45%
    20:00 +24°C° 0 mm 1 mps 637 mmHg 48%
    21:00 +24°C° 0 mm 1 mps 637 mmHg 50%
    22:00 +23°C° 0 mm 1 mps 637 mmHg 52%
    23:00 +23°C° 0 mm 1 mps 637 mmHg 54%

    23 November, Thursday

    Time Temperature Precipitation Wind Pressure Humidity
    00:00 +22°C° 0 mm 1 mps 637 mmHg 55%
    01:00 +22°C° 0 mm 1 mps 636 mmHg 57%
    02:00 +22°C° 0 mm 1 mps 636 mmHg 59%
    03:00 +22°C° 0 mm 1 mps 636 mmHg 61%
    04:00 +21°C° 0 mm 1 mps 636 mmHg 63%
    05:00 +20°C° 0 mm 2 mps 636 mmHg 65%
    06:00 +21°C° 0 mm 2 mps 637 mmHg 62%
    07:00 +24°C° 0 mm 3 mps 638 mmHg 60%
    08:00 +25°C° 0 mm 4 mps 639 mmHg 57%
    09:00 +27°C° 0 mm 3 mps 639 mmHg 51%
    10:00 +29°C° 0 mm 3 mps 640 mmHg 46%
    11:00 +30°C° 0 mm 2 mps 640 mmHg 40%
    12:00 +30°C° 0 mm 2 mps 639 mmHg 41%
    13:00 +29°C° 0 mm 1 mps 638 mmHg 43%
    14:00 +28°C° 0 mm 1 mps 637 mmHg 45%
    15:00 +27°C° 0.5 mm 1 mps 637 mmHg 50%
    16:00 +26°C° 0.5 mm 2 mps 637 mmHg 55%
    17:00 +25°C° 0.5 mm 2 mps 637 mmHg 61%
    18:00 +24°C° 1.1 mm 2 mps 637 mmHg 65%
    19:00 +23°C° 1.1 mm 2 mps 637 mmHg 69%
    20:00 +21°C° 1.1 mm 2 mps 638 mmHg 73%
    21:00 +21°C° 1 mm 2 mps 638 mmHg 75%
    22:00 +21°C° 1 mm 3 mps 638 mmHg 77%
    23:00 +20°C° 1 mm 3 mps 638 mmHg 78%

    24 November, Friday

    Time Temperature Precipitation Wind Pressure Humidity
    00:00 +20°C° 0.4 mm 2 mps 638 mmHg 80%
    01:00 +19°C° 0.4 mm 2 mps 638 mmHg 82%
    02:00 +20°C° 0.4 mm 1 mps 637 mmHg 84%
    03:00 +20°C° 0 mm 1 mps 637 mmHg 84%
    04:00 +19°C° 0 mm 1 mps 638 mmHg 84%
    05:00 +19°C° 0 mm 1 mps 638 mmHg 85%
    06:00 +19°C° 0 mm 2 mps 639 mmHg 79%
    07:00 +21°C° 0 mm 2 mps 639 mmHg 73%
    08:00 +22°C° 0 mm 3 mps 640 mmHg 67%
    09:00 +24°C° 0.1 mm 3 mps 640 mmHg 63%
    10:00 +26°C° 0.1 mm 3 mps 640 mmHg 58%
    11:00 +27°C° 0.1 mm 3 mps 640 mmHg 54%
    12:00 +27°C° 0.5 mm 2 mps 639 mmHg 53%
    13:00 +27°C° 0.5 mm 2 mps 639 mmHg 53%
    14:00 +27°C° 0.5 mm 2 mps 638 mmHg 53%
    15:00 +26°C° 1.1 mm 2 mps 638 mmHg 57%
    16:00 +25°C° 1.1 mm 2 mps 638 mmHg 60%
    17:00 +25°C° 1.1 mm 2 mps 638 mmHg 64%
    18:00 +23°C° 0.4 mm 2 mps 638 mmHg 69%
    19:00 +21°C° 0.4 mm 2 mps 638 mmHg 73%
    20:00 +20°C° 0.4 mm 2 mps 638 mmHg 78%
    21:00 +20°C° 0 mm 2 mps 638 mmHg 80%
    22:00 +19°C° 0 mm 2 mps 638 mmHg 81%
    23:00 +20°C° 0 mm 1 mps 637 mmHg 83%

    25 November, Saturday

    Time Temperature Precipitation Wind Pressure Humidity
    00:00 +20°C° 0 mm 1 mps 637 mmHg 84%
    01:00 +19°C° 0 mm 1 mps 637 mmHg 85%
    02:00 +19°C° 0 mm 1 mps 637 mmHg 86%
    03:00 +19°C° 0 mm 1 mps 637 mmHg 87%
    04:00 +19°C° 0 mm 1 mps 637 mmHg 87%
    05:00 +19°C° 0 mm 1 mps 638 mmHg 88%
    06:00 +20°C° 0.2 mm 1 mps 638 mmHg 83%
    07:00 +20°C° 0.2 mm 2 mps 639 mmHg 78%
    08:00 +21°C° 0.2 mm 2 mps 640 mmHg 73%
    09:00 +23°C° 1 mm 2 mps 640 mmHg 69%
    10:00 +24°C° 1 mm 2 mps 640 mmHg 65%
    11:00 +25°C° 1 mm 2 mps 639 mmHg 61%
    12:00 +26°C° 1.2 mm 1 mps 639 mmHg 60%
    13:00 +26°C° 1.2 mm 1 mps 639 mmHg 59%
    14:00 +27°C° 1.2 mm 1 mps 638 mmHg 57%
    15:00 +26°C° 1.1 mm 1 mps 638 mmHg 62%
    16:00 +25°C° 1.1 mm 1 mps 637 mmHg 66%
    17:00 +24°C° 1.1 mm 2 mps 637 mmHg 70%
    18:00 +23°C° 0.4 mm 2 mps 637 mmHg 74%
    19:00 +22°C° 0.4 mm 1 mps 637 mmHg 78%
    20:00 +21°C° 0.4 mm 1 mps 638 mmHg 82%
    21:00 +20°C° 0.1 mm 1 mps 638 mmHg 83%
    22:00 +20°C° 0.1 mm 1 mps 638 mmHg 84%
    23:00 +20°C° 0.1 mm 1 mps 638 mmHg 84%
    Show more